owner,sensor,date,latitude,longitude,vertical_datum,wind_speed,wind_to_direction,wind_speed_of_gust,qcFlag 
COMPS,ioos:station:USF.COMPS:SHP:1,2014-04-01T00:00:00Z,30.0600,-84.2910,10.0,4.79,239.27,6.07,'1111122,1111122,1111122' 
COMPS,ioos:station:USF.COMPS:SHP:1,2014-04-01T00:06:00Z,30.0600,-84.2910,10.0,4.84,235.71,5.48,'1111122,1111122,1111122' 
COMPS,ioos:station:USF.COMPS:SHP:1,2014-04-01T00:12:00Z,30.0600,-84.2910,10.0,4.39,232.21,4.9,'1111122,1111122,1111122' 
COMPS,ioos:station:USF.COMPS:SHP:1,2014-04-01T00:18:00Z,30.0600,-84.2910,10.0,4.57,232.94,5.29,'1111122,1111122,1111122' 
COMPS,ioos:station:USF.COMPS:SHP:1,2014-04-01T00:24:00Z,30.0600,-84.2910,10.0,4.07,237.53,4.99,'1111122,1111122,1111122' 
COMPS,ioos:station:USF.COMPS:SHP:1,2014-04-01T00:30:00Z,30.0600,-84.2910,10.0,4.29,234.14,5.09,'1111122,1111122,1111122' 
COMPS,ioos:station:USF.COMPS:SHP:1,2014-04-01T00:36:00Z,30.0600,-84.2910,10.0,4.2,232.34,4.7,'1111122,1111122,1111122' 
COMPS,ioos:station:USF.COMPS:SHP:1,2014-04-01T00:42:00Z,30.0600,-84.2910,10.0,4.22,230.38,4.8,'1111122,1111122,1111122' 
COMPS,ioos:station:USF.COMPS:SHP:1,2014-04-01T00:48:00Z,30.0600,-84.2910,10.0,4.44,238.47,5.39,'1111122,1111122,1111122' 
COMPS,ioos:station:USF.COMPS:SHP:1,2014-04-01T00:54:00Z,30.0600,-84.2910,10.0,4.51,237.84,5.68,'1111122,1111122,1111122' 
COMPS,ioos:station:USF.COMPS:SHP:1,2014-04-01T01:00:00Z,30.0600,-84.2910,10.0,4.11,237.77,4.99,'1111122,1111122,1111122' 
COMPS,ioos:station:USF.COMPS:SHP:1,2014-04-01T01:06:00Z,30.0600,-84.2910,10.0,3.02,257.98,3.72,'1111122,1111122,1111122' 
COMPS,ioos:station:USF.COMPS:SHP:1,2014-04-01T01:12:00Z,30.0600,-84.2910,10.0,3.32,256.66,3.92,'1111122,1111122,1111122' 
COMPS,ioos:station:USF.COMPS:SHP:1,2014-04-01T01:18:00Z,30.0600,-84.2910,10.0,3.62,263.02,4.11,'1111122,1111122,1111122' 
COMPS,ioos:station:USF.COMPS:SHP:1,2014-04-01T01:24:00Z,30.0600,-84.2910,10.0,3.6,255.37,4.31,'1111122,1111122,1111122' 
COMPS,ioos:station:USF.COMPS:SHP:1,2014-04-01T01:30:00Z,30.0600,-84.2910,10.0,3.98,262.18,4.7,'1111122,1111122,1111122' 
COMPS,ioos:station:USF.COMPS:SHP:1,2014-04-01T01:36:00Z,30.0600,-84.2910,10.0,3.45,261.87,4.11,'1111122,1111122,1111122' 
COMPS,ioos:station:USF.COMPS:SHP:1,2014-04-01T01:42:00Z,30.0600,-84.2910,10.0,3.65,256.73,4.41,'1111122,1111122,1111122' 
COMPS,ioos:station:USF.COMPS:SHP:1,2014-04-01T01:48:00Z,30.0600,-84.2910,10.0,3.68,255.7,4.5,'1111122,1111122,1111122' 
COMPS,ioos:station:USF.COMPS:SHP:1,2014-04-01T01:54:00Z,30.0600,-84.2910,10.0,3.96,256.03,4.6,'1111122,1111122,1111122' 
COMPS,ioos:station:USF.COMPS:SHP:1,2014-04-01T02:00:00Z,30.0600,-84.2910,10.0,4.07,255.75,4.7,'1111122,1111122,1111122' 
COMPS,ioos:station:USF.COMPS:SHP:1,2014-04-01T02:06:00Z,30.0600,-84.2910,10.0,3.55,253.58,4.21,'1111122,1111122,1111122' 
COMPS,ioos:station:USF.COMPS:SHP:1,2014-04-01T02:12:00Z,30.0600,-84.2910,10.0,3.77,252.26,4.8,'1111122,1111122,1111122' 
COMPS,ioos:station:USF.COMPS:SHP:1,2014-04-01T02:18:00Z,30.0600,-84.2910,10.0,3.66,252.66,4.41,'1111122,1111122,1111122' 
COMPS,ioos:station:USF.COMPS:SHP:1,2014-04-01T02:24:00Z,30.0600,-84.2910,10.0,3.96,254.72,4.5,'1111122,1111122,1111122' 
COMPS,ioos:station:USF.COMPS:SHP:1,2014-04-01T02:30:00Z,30.0600,-84.2910,10.0,3.96,255.96,4.7,'1111122,1111122,1111122' 
COMPS,ioos:station:USF.COMPS:SHP:1,2014-04-01T02:36:00Z,30.0600,-84.2910,10.0,3.72,249.47,4.6,'1111122,1111122,1111122' 
COMPS,ioos:station:USF.COMPS:SHP:1,2014-04-01T02:42:00Z,30.0600,-84.2910,10.0,3.64,248.62,4.31,'1111122,1111122,1111122' 
COMPS,ioos:station:USF.COMPS:SHP:1,2014-04-01T02:48:00Z,30.0600,-84.2910,10.0,3.63,250.86,4.41,'1111122,1111122,1111122' 
COMPS,ioos:station:USF.COMPS:SHP:1,2014-04-01T02:54:00Z,30.0600,-84.2910,10.0,3.73,248.96,4.6,'1111122,1111122,1111122' 
COMPS,ioos:station:USF.COMPS:SHP:1,2014-04-01T03:00:00Z,30.0600,-84.2910,10.0,4.01,251.03,4.9,'1111122,1111122,1111122' 
COMPS,ioos:station:USF.COMPS:SHP:1,2014-04-01T03:06:00Z,30.0600,-84.2910,10.0,4.48,250.31,5.09,'1111122,1111122,1111122' 
COMPS,ioos:station:USF.COMPS:SHP:1,2014-04-01T03:12:00Z,30.0600,-84.2910,10.0,3.87,252.7,4.7,'1111122,1111122,1111122' 
COMPS,ioos:station:USF.COMPS:SHP:1,2014-04-01T03:18:00Z,30.0600,-84.2910,10.0,3.92,258.97,4.6,'1111122,1111122,1111122' 
COMPS,ioos:station:USF.COMPS:SHP:1,2014-04-01T03:24:00Z,30.0600,-84.2910,10.0,3.46,257.1,4.21,'1111122,1111122,1111122' 
COMPS,ioos:station:USF.COMPS:SHP:1,2014-04-01T03:30:00Z,30.0600,-84.2910,10.0,3.18,261.87,4.21,'1111122,1111122,1111122' 
COMPS,ioos:station:USF.COMPS:SHP:1,2014-04-01T03:36:00Z,30.0600,-84.2910,10.0,2.29,268.39,3.03,'1111122,1111122,1111122' 
COMPS,ioos:station:USF.COMPS:SHP:1,2014-04-01T03:42:00Z,30.0600,-84.2910,10.0,2.38,268.37,3.33,'1111122,1111122,1111122' 
COMPS,ioos:station:USF.COMPS:SHP:1,2014-04-01T03:48:00Z,30.0600,-84.2910,10.0,2.46,269.36,3.13,'1111122,1111122,1111122' 
COMPS,ioos:station:USF.COMPS:SHP:1,2014-04-01T03:54:00Z,30.0600,-84.2910,10.0,2.64,269.84,3.33,'1111122,1111122,1111122' 
COMPS,ioos:station:USF.COMPS:SHP:1,2014-04-01T04:00:00Z,30.0600,-84.2910,10.0,2.52,271.16,3.72,'1111122,1111122,1111122' 
COMPS,ioos:station:USF.COMPS:SHP:1,2014-04-01T04:06:00Z,30.0600,-84.2910,10.0,2.21,277.73,3.03,'1111122,1111122,1111122' 
COMPS,ioos:station:USF.COMPS:SHP:1,2014-04-01T04:12:00Z,30.0600,-84.2910,10.0,1.63,304.06,3.23,'1111122,1111122,1111122' 
COMPS,ioos:station:USF.COMPS:SHP:1,2014-04-01T04:18:00Z,30.0600,-84.2910,10.0,1.97,309.49,2.74,'1111122,1111122,1111122' 
COMPS,ioos:station:USF.COMPS:SHP:1,2014-04-01T04:24:00Z,30.0600,-84.2910,10.0,1.55,307.85,2.25,'1111122,1111122,1111122' 
COMPS,ioos:station:USF.COMPS:SHP:1,2014-04-01T04:30:00Z,30.0600,-84.2910,10.0,1.66,296.66,2.35,'1111122,1111122,1111122' 
COMPS,ioos:station:USF.COMPS:SHP:1,2014-04-01T04:36:00Z,30.0600,-84.2910,10.0,1.99,284.78,2.94,'1111122,1111122,1111122' 
COMPS,ioos:station:USF.COMPS:SHP:1,2014-04-01T04:42:00Z,30.0600,-84.2910,10.0,1.85,286.72,2.74,'1111122,1111122,1111122' 
COMPS,ioos:station:USF.COMPS:SHP:1,2014-04-01T04:48:00Z,30.0600,-84.2910,10.0,2.1,288.17,2.84,'1111122,1111122,1111122' 
COMPS,ioos:station:USF.COMPS:SHP:1,2014-04-01T04:54:00Z,30.0600,-84.2910,10.0,1.54,296.39,2.35,'1111122,1111122,1111122' 
COMPS,ioos:station:USF.COMPS:SHP:1,2014-04-01T05:00:00Z,30.0600,-84.2910,10.0,1.57,293.54,2.05,'1111122,1111122,1111122' 
COMPS,ioos:station:USF.COMPS:SHP:1,2014-04-01T05:06:00Z,30.0600,-84.2910,10.0,1.21,288.31,1.76,'1111122,1111122,1111122' 
COMPS,ioos:station:USF.COMPS:SHP:1,2014-04-01T05:12:00Z,30.0600,-84.2910,10.0,1.15,287.0,1.66,'1111122,1111122,1111122' 
COMPS,ioos:station:USF.COMPS:SHP:1,2014-04-01T05:18:00Z,30.0600,-84.2910,10.0,1.43,276.43,2.35,'1111122,1111122,1111122' 
COMPS,ioos:station:USF.COMPS:SHP:1,2014-04-01T05:24:00Z,30.0600,-84.2910,10.0,1.97,268.3,2.64,'1111122,1111122,1111122' 
COMPS,ioos:station:USF.COMPS:SHP:1,2014-04-01T05:30:00Z,30.0600,-84.2910,10.0,2.25,261.24,2.84,'1111122,1111122,1111122' 
COMPS,ioos:station:USF.COMPS:SHP:1,2014-04-01T05:36:00Z,30.0600,-84.2910,10.0,2.52,262.47,3.03,'1111122,1111122,1111122' 
COMPS,ioos:station:USF.COMPS:SHP:1,2014-04-01T05:42:00Z,30.0600,-84.2910,10.0,2.1,271.85,2.84,'1111122,1111122,1111122' 
COMPS,ioos:station:USF.COMPS:SHP:1,2014-04-01T05:48:00Z,30.0600,-84.2910,10.0,1.98,283.83,2.74,'1111122,1111122,1111122' 
COMPS,ioos:station:USF.COMPS:SHP:1,2014-04-01T05:54:00Z,30.0600,-84.2910,10.0,1.56,284.39,2.25,'1111122,1111122,1111122' 
COMPS,ioos:station:USF.COMPS:SHP:1,2014-04-01T06:00:00Z,30.0600,-84.2910,10.0,1.07,286.29,1.66,'1111122,1111122,1111122' 
COMPS,ioos:station:USF.COMPS:SHP:1,2014-04-01T06:06:00Z,30.0600,-84.2910,10.0,0.31,298.39,0.78,'1111122,1111122,1111122' 
COMPS,ioos:station:USF.COMPS:SHP:1,2014-04-01T06:12:00Z,30.0600,-84.2910,10.0,0.55,301.52,0.68,'1111122,1111122,1111122' 
COMPS,ioos:station:USF.COMPS:SHP:1,2014-04-01T06:18:00Z,30.0600,-84.2910,10.0,0.47,297.91,0.78,'1111122,1111122,1111122' 
COMPS,ioos:station:USF.COMPS:SHP:1,2014-04-01T06:24:00Z,30.0600,-84.2910,10.0,0.76,290.03,1.07,'1111122,1111122,1111122' 
COMPS,ioos:station:USF.COMPS:SHP:1,2014-04-01T06:30:00Z,30.0600,-84.2910,10.0,0.93,298.25,1.27,'1111122,1111122,1111122' 
COMPS,ioos:station:USF.COMPS:SHP:1,2014-04-01T06:36:00Z,30.0600,-84.2910,10.0,1.02,298.77,1.17,'1111122,1111122,1111122' 
COMPS,ioos:station:USF.COMPS:SHP:1,2014-04-01T06:42:00Z,30.0600,-84.2910,10.0,1.02,306.61,1.17,'1111122,1111122,1111122' 
COMPS,ioos:station:USF.COMPS:SHP:1,2014-04-01T06:48:00Z,30.0600,-84.2910,10.0,1.18,324.39,1.47,'1111122,1111122,1111122' 
COMPS,ioos:station:USF.COMPS:SHP:1,2014-04-01T06:54:00Z,30.0600,-84.2910,10.0,1.05,330.37,1.27,'1111122,1111122,1111122' 
COMPS,ioos:station:USF.COMPS:SHP:1,2014-04-01T07:00:00Z,30.0600,-84.2910,10.0,0.81,335.56,1.17,'1111122,1111122,1111122' 
COMPS,ioos:station:USF.COMPS:SHP:1,2014-04-01T07:06:00Z,30.0600,-84.2910,10.0,0.88,346.12,1.17,'1111122,1111122,1111122' 
COMPS,ioos:station:USF.COMPS:SHP:1,2014-04-01T07:12:00Z,30.0600,-84.2910,10.0,1.08,351.18,1.27,'1111122,1111122,1111122' 
COMPS,ioos:station:USF.COMPS:SHP:1,2014-04-01T07:18:00Z,30.0600,-84.2910,10.0,1.12,2.37,1.37,'1111122,1111122,1111122' 
COMPS,ioos:station:USF.COMPS:SHP:1,2014-04-01T07:24:00Z,30.0600,-84.2910,10.0,1.17,354.39,1.37,'1111122,1111122,1111122' 
COMPS,ioos:station:USF.COMPS:SHP:1,2014-04-01T07:30:00Z,30.0600,-84.2910,10.0,1.15,349.98,1.47,'1111122,1111122,1111122' 
COMPS,ioos:station:USF.COMPS:SHP:1,2014-04-01T07:36:00Z,30.0600,-84.2910,10.0,1.18,346.47,1.47,'1111122,1111122,1111122' 
COMPS,ioos:station:USF.COMPS:SHP:1,2014-04-01T07:42:00Z,30.0600,-84.2910,10.0,1.02,334.77,1.17,'1111122,1111122,1111122' 
COMPS,ioos:station:USF.COMPS:SHP:1,2014-04-01T07:48:00Z,30.0600,-84.2910,10.0,0.96,323.93,1.17,'1111122,1111122,1111122' 
COMPS,ioos:station:USF.COMPS:SHP:1,2014-04-01T07:54:00Z,30.0600,-84.2910,10.0,1.18,328.5,1.47,'1111122,1111122,1111122' 
COMPS,ioos:station:USF.COMPS:SHP:1,2014-04-01T08:00:00Z,30.0600,-84.2910,10.0,1.07,343.06,1.37,'1111122,1111122,1111122' 
COMPS,ioos:station:USF.COMPS:SHP:1,2014-04-01T08:06:00Z,30.0600,-84.2910,10.0,1.22,351.53,1.56,'1111122,1111122,1111122' 
COMPS,ioos:station:USF.COMPS:SHP:1,2014-04-01T08:12:00Z,30.0600,-84.2910,10.0,0.82,351.88,1.07,'1111122,1111122,1111122' 
COMPS,ioos:station:USF.COMPS:SHP:1,2014-04-01T08:18:00Z,30.0600,-84.2910,10.0,0.95,347.43,1.17,'1111122,1111122,1111122' 
COMPS,ioos:station:USF.COMPS:SHP:1,2014-04-01T08:24:00Z,30.0600,-84.2910,10.0,0.95,335.2,1.17,'1111122,1111122,1111122' 
COMPS,ioos:station:USF.COMPS:SHP:1,2014-04-01T08:30:00Z,30.0600,-84.2910,10.0,0.96,331.95,1.27,'1111122,1111122,1111122' 
COMPS,ioos:station:USF.COMPS:SHP:1,2014-04-01T08:36:00Z,30.0600,-84.2910,10.0,0.81,329.61,1.17,'1111122,1111122,1111122' 
COMPS,ioos:station:USF.COMPS:SHP:1,2014-04-01T08:42:00Z,30.0600,-84.2910,10.0,0.42,321.53,0.88,'1111122,1111122,1111122' 
COMPS,ioos:station:USF.COMPS:SHP:1,2014-04-01T08:48:00Z,30.0600,-84.2910,10.0,0.09,309.19,0.09,'1111122,1111122,1111122' 
COMPS,ioos:station:USF.COMPS:SHP:1,2014-04-01T08:54:00Z,30.0600,-84.2910,10.0,0.37,275.58,0.78,'1111122,1111122,1111122' 
COMPS,ioos:station:USF.COMPS:SHP:1,2014-04-01T09:00:00Z,30.0600,-84.2910,10.0,0.55,268.36,0.78,'1111122,1111122,1111122' 
COMPS,ioos:station:USF.COMPS:SHP:1,2014-04-01T09:06:00Z,30.0600,-84.2910,10.0,0.3,275.46,0.58,'1111122,1111122,1111122' 
COMPS,ioos:station:USF.COMPS:SHP:1,2014-04-01T09:12:00Z,30.0600,-84.2910,10.0,0.55,296.36,0.78,'1111122,1111122,1111122' 
COMPS,ioos:station:USF.COMPS:SHP:1,2014-04-01T09:18:00Z,30.0600,-84.2910,10.0,0.51,306.12,0.68,'1111122,1111122,1111122' 
COMPS,ioos:station:USF.COMPS:SHP:1,2014-04-01T09:24:00Z,30.0600,-84.2910,10.0,0.31,318.64,0.58,'1111122,1111122,1111122' 
COMPS,ioos:station:USF.COMPS:SHP:1,2014-04-01T09:30:00Z,30.0600,-84.2910,10.0,0.43,343.05,0.78,'1111122,1111122,1111122' 
COMPS,ioos:station:USF.COMPS:SHP:1,2014-04-01T09:36:00Z,30.0600,-84.2910,10.0,0.66,343.33,0.97,'1111122,1111122,1111122' 
COMPS,ioos:station:USF.COMPS:SHP:1,2014-04-01T09:42:00Z,30.0600,-84.2910,10.0,0.76,337.14,0.97,'1111122,1111122,1111122' 
COMPS,ioos:station:USF.COMPS:SHP:1,2014-04-01T09:48:00Z,30.0600,-84.2910,10.0,0.69,344.13,0.97,'1111122,1111122,1111122' 
COMPS,ioos:station:USF.COMPS:SHP:1,2014-04-01T09:54:00Z,30.0600,-84.2910,10.0,0.9,341.92,1.56,'1111122,1111122,1111122' 
COMPS,ioos:station:USF.COMPS:SHP:1,2014-04-01T10:00:00Z,30.0600,-84.2910,10.0,1.14,343.24,1.47,'1111122,1111122,1111122' 
COMPS,ioos:station:USF.COMPS:SHP:1,2014-04-01T10:06:00Z,30.0600,-84.2910,10.0,0.92,342.33,1.56,'1111122,1111122,1111122' 
COMPS,ioos:station:USF.COMPS:SHP:1,2014-04-01T10:12:00Z,30.0600,-84.2910,10.0,0.77,355.8,1.27,'1111122,1111122,1111122' 
COMPS,ioos:station:USF.COMPS:SHP:1,2014-04-01T10:18:00Z,30.0600,-84.2910,10.0,0.84,6.03,1.07,'1111122,1111122,1111122' 
COMPS,ioos:station:USF.COMPS:SHP:1,2014-04-01T10:24:00Z,30.0600,-84.2910,10.0,0.67,359.17,0.88,'1111122,1111122,1111122' 
COMPS,ioos:station:USF.COMPS:SHP:1,2014-04-01T10:30:00Z,30.0600,-84.2910,10.0,0.15,11.43,0.58,'1111122,1111122,1111122' 
COMPS,ioos:station:USF.COMPS:SHP:1,2014-04-01T10:36:00Z,30.0600,-84.2910,10.0,0.48,2.4,0.78,'1111122,1111122,1111122' 
COMPS,ioos:station:USF.COMPS:SHP:1,2014-04-01T10:42:00Z,30.0600,-84.2910,10.0,0.65,354.34,0.78,'1111122,1111122,1111122' 
COMPS,ioos:station:USF.COMPS:SHP:1,2014-04-01T10:48:00Z,30.0600,-84.2910,10.0,1.01,343.99,1.47,'1111122,1111122,1111122' 
COMPS,ioos:station:USF.COMPS:SHP:1,2014-04-01T10:54:00Z,30.0600,-84.2910,10.0,0.64,348.12,0.88,'1111122,1111122,1111122' 
COMPS,ioos:station:USF.COMPS:SHP:1,2014-04-01T11:00:00Z,30.0600,-84.2910,10.0,1.05,345.61,1.47,'1111122,1111122,1111122' 
COMPS,ioos:station:USF.COMPS:SHP:1,2014-04-01T11:06:00Z,30.0600,-84.2910,10.0,1.36,348.19,1.56,'1111122,1111122,1111122' 
COMPS,ioos:station:USF.COMPS:SHP:1,2014-04-01T11:12:00Z,30.0600,-84.2910,10.0,1.24,355.06,1.76,'1111122,1111122,1111122' 
COMPS,ioos:station:USF.COMPS:SHP:1,2014-04-01T11:18:00Z,30.0600,-84.2910,10.0,1.33,2.55,2.15,'1111122,1111122,1111122' 
COMPS,ioos:station:USF.COMPS:SHP:1,2014-04-01T11:24:00Z,30.0600,-84.2910,10.0,2.02,5.23,2.54,'1111122,1111122,1111122' 
COMPS,ioos:station:USF.COMPS:SHP:1,2014-04-01T11:30:00Z,30.0600,-84.2910,10.0,1.52,22.42,2.05,'1111122,1111122,1111122' 
COMPS,ioos:station:USF.COMPS:SHP:1,2014-04-01T11:36:00Z,30.0600,-84.2910,10.0,1.78,21.46,2.45,'1111122,1111122,1111122' 
COMPS,ioos:station:USF.COMPS:SHP:1,2014-04-01T11:42:00Z,30.0600,-84.2910,10.0,1.44,13.79,1.96,'1111122,1111122,1111122' 
COMPS,ioos:station:USF.COMPS:SHP:1,2014-04-01T11:48:00Z,30.0600,-84.2910,10.0,1.45,16.71,1.96,'1111122,1111122,1111122' 
COMPS,ioos:station:USF.COMPS:SHP:1,2014-04-01T11:54:00Z,30.0600,-84.2910,10.0,2.16,11.44,3.03,'1111122,1111122,1111122' 
COMPS,ioos:station:USF.COMPS:SHP:1,2014-04-01T12:00:00Z,30.0600,-84.2910,10.0,2.45,3.46,3.13,'1111122,1111122,1111122' 
COMPS,ioos:station:USF.COMPS:SHP:1,2014-04-01T12:06:00Z,30.0600,-84.2910,10.0,3.02,359.11,3.82,'1111122,1111122,1111122' 
COMPS,ioos:station:USF.COMPS:SHP:1,2014-04-01T12:12:00Z,30.0600,-84.2910,10.0,2.86,359.44,4.01,'1111122,1111122,1111122' 
COMPS,ioos:station:USF.COMPS:SHP:1,2014-04-01T12:18:00Z,30.0600,-84.2910,10.0,2.76,3.69,3.82,'1111122,1111122,1111122' 
COMPS,ioos:station:USF.COMPS:SHP:1,2014-04-01T12:24:00Z,30.0600,-84.2910,10.0,2.85,4.91,3.82,'1111122,1111122,1111122' 
COMPS,ioos:station:USF.COMPS:SHP:1,2014-04-01T12:30:00Z,30.0600,-84.2910,10.0,2.18,354.37,3.52,'1111122,1111122,1111122' 
COMPS,ioos:station:USF.COMPS:SHP:1,2014-04-01T12:36:00Z,30.0600,-84.2910,10.0,2.01,352.63,3.43,'1111122,1111122,1111122' 
COMPS,ioos:station:USF.COMPS:SHP:1,2014-04-01T12:42:00Z,30.0600,-84.2910,10.0,2.27,341.9,3.13,'1111122,1111122,1111122' 
COMPS,ioos:station:USF.COMPS:SHP:1,2014-04-01T12:48:00Z,30.0600,-84.2910,10.0,2.56,339.36,3.33,'1111122,1111122,1111122' 
COMPS,ioos:station:USF.COMPS:SHP:1,2014-04-01T12:54:00Z,30.0600,-84.2910,10.0,2.67,343.09,3.72,'1111122,1111122,1111122' 
COMPS,ioos:station:USF.COMPS:SHP:1,2014-04-01T13:00:00Z,30.0600,-84.2910,10.0,2.6,342.25,3.92,'1111122,1111122,1111122' 
COMPS,ioos:station:USF.COMPS:SHP:1,2014-04-01T13:06:00Z,30.0600,-84.2910,10.0,2.4,342.14,3.52,'1111122,1111122,1111122' 
COMPS,ioos:station:USF.COMPS:SHP:1,2014-04-01T13:12:00Z,30.0600,-84.2910,10.0,2.37,345.59,3.52,'1111122,1111122,1111122' 
COMPS,ioos:station:USF.COMPS:SHP:1,2014-04-01T13:18:00Z,30.0600,-84.2910,10.0,2.45,345.5,3.03,'1111122,1111122,1111122' 
COMPS,ioos:station:USF.COMPS:SHP:1,2014-04-01T13:24:00Z,30.0600,-84.2910,10.0,1.93,351.61,2.74,'1111122,1111122,1111122' 
COMPS,ioos:station:USF.COMPS:SHP:1,2014-04-01T13:30:00Z,30.0600,-84.2910,10.0,2.14,357.08,3.23,'1111122,1111122,1111122' 
COMPS,ioos:station:USF.COMPS:SHP:1,2014-04-01T13:36:00Z,30.0600,-84.2910,10.0,1.61,355.27,3.03,'1111122,1111122,1111122' 
COMPS,ioos:station:USF.COMPS:SHP:1,2014-04-01T13:42:00Z,30.0600,-84.2910,10.0,1.03,1.78,2.35,'1111122,1111122,1111122' 
COMPS,ioos:station:USF.COMPS:SHP:1,2014-04-01T13:48:00Z,30.0600,-84.2910,10.0,0.76,27.37,1.86,'1111122,1111122,1111122' 
COMPS,ioos:station:USF.COMPS:SHP:1,2014-04-01T13:54:00Z,30.0600,-84.2910,10.0,1.8,7.54,2.94,'1111122,1111122,1111122' 
COMPS,ioos:station:USF.COMPS:SHP:1,2014-04-01T14:00:00Z,30.0600,-84.2910,10.0,1.26,358.85,2.74,'1111122,1111122,1111122' 
COMPS,ioos:station:USF.COMPS:SHP:1,2014-04-01T14:06:00Z,30.0600,-84.2910,10.0,0.92,352.78,2.05,'1111122,1111122,1111122' 
COMPS,ioos:station:USF.COMPS:SHP:1,2014-04-01T14:12:00Z,30.0600,-84.2910,10.0,0.49,16.81,1.27,'1111122,1111122,1111122' 
COMPS,ioos:station:USF.COMPS:SHP:1,2014-04-01T14:18:00Z,30.0600,-84.2910,10.0,0.16,64.97,0.78,'1111122,1111122,1111122' 
COMPS,ioos:station:USF.COMPS:SHP:1,2014-04-01T14:24:00Z,30.0600,-84.2910,10.0,0.74,30.83,1.56,'1111122,1111122,1111122' 
COMPS,ioos:station:USF.COMPS:SHP:1,2014-04-01T14:30:00Z,30.0600,-84.2910,10.0,0.39,66.78,1.17,'1111122,1111122,1111122' 
COMPS,ioos:station:USF.COMPS:SHP:1,2014-04-01T14:36:00Z,30.0600,-84.2910,10.0,1.06,96.85,2.15,'1111122,1111122,1111122' 
COMPS,ioos:station:USF.COMPS:SHP:1,2014-04-01T14:42:00Z,30.0600,-84.2910,10.0,0.3,74.96,1.17,'1111122,1111122,1111122' 
COMPS,ioos:station:USF.COMPS:SHP:1,2014-04-01T14:48:00Z,30.0600,-84.2910,10.0,0.46,93.53,1.76,'1111122,1111122,1111122' 
COMPS,ioos:station:USF.COMPS:SHP:1,2014-04-01T14:54:00Z,30.0600,-84.2910,10.0,0.41,88.01,1.47,'1111122,1111122,1111122' 
COMPS,ioos:station:USF.COMPS:SHP:1,2014-04-01T15:00:00Z,30.0600,-84.2910,10.0,0.73,67.95,2.35,'1111122,1111122,1111122' 
COMPS,ioos:station:USF.COMPS:SHP:1,2014-04-01T15:06:00Z,30.0600,-84.2910,10.0,1.07,104.14,2.54,'1111122,1111122,1111122' 
COMPS,ioos:station:USF.COMPS:SHP:1,2014-04-01T15:12:00Z,30.0600,-84.2910,10.0,1.87,119.17,2.35,'1111122,1111122,1111122' 
COMPS,ioos:station:USF.COMPS:SHP:1,2014-04-01T15:18:00Z,30.0600,-84.2910,10.0,2.32,127.27,2.94,'1111122,1111122,1111122' 
COMPS,ioos:station:USF.COMPS:SHP:1,2014-04-01T15:24:00Z,30.0600,-84.2910,10.0,2.38,130.22,2.94,'1111122,1111122,1111122' 
COMPS,ioos:station:USF.COMPS:SHP:1,2014-04-01T15:30:00Z,30.0600,-84.2910,10.0,2.24,130.14,2.54,'1111122,1111122,1111122' 
COMPS,ioos:station:USF.COMPS:SHP:1,2014-04-01T15:36:00Z,30.0600,-84.2910,10.0,2.08,134.94,2.45,'1111122,1111122,1111122' 
COMPS,ioos:station:USF.COMPS:SHP:1,2014-04-01T15:42:00Z,30.0600,-84.2910,10.0,1.73,135.67,2.15,'1111122,1111122,1111122' 
COMPS,ioos:station:USF.COMPS:SHP:1,2014-04-01T15:48:00Z,30.0600,-84.2910,10.0,1.64,138.33,1.96,'1111122,1111122,1111122' 
COMPS,ioos:station:USF.COMPS:SHP:1,2014-04-01T15:54:00Z,30.0600,-84.2910,10.0,1.66,137.64,2.35,'1111122,1111122,1111122' 
COMPS,ioos:station:USF.COMPS:SHP:1,2014-04-01T16:00:00Z,30.0600,-84.2910,10.0,1.8,134.9,2.25,'1111122,1111122,1111122' 
COMPS,ioos:station:USF.COMPS:SHP:1,2014-04-01T16:06:00Z,30.0600,-84.2910,10.0,2.32,137.17,2.84,'1111122,1111122,1111122' 
COMPS,ioos:station:USF.COMPS:SHP:1,2014-04-01T16:12:00Z,30.0600,-84.2910,10.0,2.66,140.09,3.13,'1111122,1111122,1111122' 
COMPS,ioos:station:USF.COMPS:SHP:1,2014-04-01T16:18:00Z,30.0600,-84.2910,10.0,2.64,140.0,3.03,'1111122,1111122,1111122' 
COMPS,ioos:station:USF.COMPS:SHP:1,2014-04-01T16:24:00Z,30.0600,-84.2910,10.0,2.52,142.49,3.13,'1111122,1111122,1111122' 
COMPS,ioos:station:USF.COMPS:SHP:1,2014-04-01T16:30:00Z,30.0600,-84.2910,10.0,2.52,146.35,3.03,'1111122,1111122,1111122' 
COMPS,ioos:station:USF.COMPS:SHP:1,2014-04-01T16:36:00Z,30.0600,-84.2910,10.0,2.93,149.83,3.52,'1111122,1111122,1111122' 
COMPS,ioos:station:USF.COMPS:SHP:1,2014-04-01T16:42:00Z,30.0600,-84.2910,10.0,2.92,153.94,3.52,'1111122,1111122,1111122' 
COMPS,ioos:station:USF.COMPS:SHP:1,2014-04-01T16:48:00Z,30.0600,-84.2910,10.0,2.82,154.99,3.43,'1111122,1111122,1111122' 
COMPS,ioos:station:USF.COMPS:SHP:1,2014-04-01T16:54:00Z,30.0600,-84.2910,10.0,2.46,151.19,3.13,'1111122,1111122,1111122' 
COMPS,ioos:station:USF.COMPS:SHP:1,2014-04-01T17:00:00Z,30.0600,-84.2910,10.0,2.36,151.76,3.03,'1111122,1111122,1111122' 
COMPS,ioos:station:USF.COMPS:SHP:1,2014-04-01T17:06:00Z,30.0600,-84.2910,10.0,2.48,159.07,3.03,'1111122,1111122,1111122' 
COMPS,ioos:station:USF.COMPS:SHP:1,2014-04-01T17:12:00Z,30.0600,-84.2910,10.0,2.95,161.49,3.43,'1111122,1111122,1111122' 
COMPS,ioos:station:USF.COMPS:SHP:1,2014-04-01T17:18:00Z,30.0600,-84.2910,10.0,2.9,163.91,3.23,'1111122,1111122,1111122' 
COMPS,ioos:station:USF.COMPS:SHP:1,2014-04-01T17:24:00Z,30.0600,-84.2910,10.0,3.03,160.07,3.92,'1111122,1111122,1111122' 
COMPS,ioos:station:USF.COMPS:SHP:1,2014-04-01T17:30:00Z,30.0600,-84.2910,10.0,3.25,158.41,3.82,'1111122,1111122,1111122' 
COMPS,ioos:station:USF.COMPS:SHP:1,2014-04-01T17:36:00Z,30.0600,-84.2910,10.0,3.57,155.55,4.11,'1111122,1111122,1111122' 
COMPS,ioos:station:USF.COMPS:SHP:1,2014-04-01T17:42:00Z,30.0600,-84.2910,10.0,3.69,153.95,4.11,'1111122,1111122,1111122' 
COMPS,ioos:station:USF.COMPS:SHP:1,2014-04-01T17:48:00Z,30.0600,-84.2910,10.0,4.03,154.86,4.8,'1111122,1111122,1111122' 
COMPS,ioos:station:USF.COMPS:SHP:1,2014-04-01T17:54:00Z,30.0600,-84.2910,10.0,4.36,150.42,4.9,'1111122,1111122,1111122' 
COMPS,ioos:station:USF.COMPS:SHP:1,2014-04-01T18:00:00Z,30.0600,-84.2910,10.0,4.49,149.7,5.09,'1111122,1111122,1111122' 
COMPS,ioos:station:USF.COMPS:SHP:1,2014-04-01T18:06:00Z,30.0600,-84.2910,10.0,4.9,150.53,5.39,'1111122,1111122,1111122' 
COMPS,ioos:station:USF.COMPS:SHP:1,2014-04-01T18:12:00Z,30.0600,-84.2910,10.0,4.82,155.72,5.29,'1111122,1111122,1111122' 
COMPS,ioos:station:USF.COMPS:SHP:1,2014-04-01T18:18:00Z,30.0600,-84.2910,10.0,4.74,156.08,5.29,'1111122,1111122,1111122' 
COMPS,ioos:station:USF.COMPS:SHP:1,2014-04-01T18:24:00Z,30.0600,-84.2910,10.0,4.99,155.16,5.48,'1111122,1111122,1111122' 
COMPS,ioos:station:USF.COMPS:SHP:1,2014-04-01T18:30:00Z,30.0600,-84.2910,10.0,5.28,153.88,5.97,'1111122,1111122,1111122' 
COMPS,ioos:station:USF.COMPS:SHP:1,2014-04-01T18:36:00Z,30.0600,-84.2910,10.0,5.46,152.21,5.97,'1111122,1111122,1111122' 
COMPS,ioos:station:USF.COMPS:SHP:1,2014-04-01T18:42:00Z,30.0600,-84.2910,10.0,4.78,157.09,5.58,'1111122,1111122,1111122' 
COMPS,ioos:station:USF.COMPS:SHP:1,2014-04-01T18:48:00Z,30.0600,-84.2910,10.0,4.64,162.33,5.19,'1111122,1111122,1111122' 
COMPS,ioos:station:USF.COMPS:SHP:1,2014-04-01T18:54:00Z,30.0600,-84.2910,10.0,4.72,166.68,5.19,'1111122,1111122,1111122' 
COMPS,ioos:station:USF.COMPS:SHP:1,2014-04-01T19:00:00Z,30.0600,-84.2910,10.0,4.24,167.81,4.99,'1111122,1111122,1111122' 
COMPS,ioos:station:USF.COMPS:SHP:1,2014-04-01T19:06:00Z,30.0600,-84.2910,10.0,3.79,173.28,4.6,'1111122,1111122,1111122' 
COMPS,ioos:station:USF.COMPS:SHP:1,2014-04-01T19:12:00Z,30.0600,-84.2910,10.0,4.57,168.78,5.19,'1111122,1111122,1111122' 
COMPS,ioos:station:USF.COMPS:SHP:1,2014-04-01T19:18:00Z,30.0600,-84.2910,10.0,3.69,174.68,4.99,'1111122,1111122,1111122' 
COMPS,ioos:station:USF.COMPS:SHP:1,2014-04-01T19:24:00Z,30.0600,-84.2910,10.0,3.03,178.5,4.5,'1111122,1111122,1111122' 
COMPS,ioos:station:USF.COMPS:SHP:1,2014-04-01T19:30:00Z,30.0600,-84.2910,10.0,2.61,184.13,3.82,'1111122,1111122,1111122' 